Hourly Data Report for October 31, 2004

TORONTO CITY
ONTARIO

43°40'00.000" N
79°24'00.000" W
112.50 m
6158355
71508
XTO

Download Data

Hourly Data (October 2004)
Hourly Data Report for October 31, 2004
TIME
LST
Temp Definition
°C
Dew Point Definition
°C
Rel Hum Definition
%
Precip. Amount Definition
mm

Wind Dir Definition
10's deg

Wind Spd Definition
km/h
Visibility Definition
km
Stn Press Definition
kPa
Hmdx Definition


Wind Chill Definition


Weather Definition


00:00 13.8 6.5 61   LegendMM LegendMM LegendMM 98.69     LegendNANA
01:00 13.4 6.8 64   LegendMM LegendMM LegendMM 98.74     LegendNANA
02:00 13.4 6.9 65   LegendMM LegendMM LegendMM 98.81     LegendNANA
03:00 12.5 7.9 74   LegendMM LegendMM LegendMM 98.83     LegendNANA
04:00 11.9 7.8 76   LegendMM LegendMM LegendMM 98.86     LegendNANA
05:00 11.8 8.0 78   LegendMM LegendMM LegendMM 98.90     LegendNANA
06:00 12.1 8.2 77   LegendMM LegendMM LegendMM 98.93     LegendNANA
07:00 12.2 8.1 76   LegendMM LegendMM LegendMM 98.97     LegendNANA
08:00 11.8 8.8 82   LegendMM LegendMM LegendMM 99.05     LegendNANA
09:00 12.7 8.3 75   LegendMM LegendMM LegendMM 99.06     LegendNANA
10:00 12.9 8.1 73   LegendMM LegendMM LegendMM 99.14     LegendNANA
11:00 13.1 7.6 69   LegendMM LegendMM LegendMM 99.20     LegendNANA
12:00 12.7 7.0 68   LegendMM LegendMM LegendMM 99.25     LegendNANA
13:00 12.7 6.2 65   LegendMM LegendMM LegendMM 99.34     LegendNANA
14:00 12.5 6.0 65   LegendMM LegendMM LegendMM 99.39     LegendNANA
15:00 12.2 6.8 70   LegendMM LegendMM LegendMM 99.47     LegendNANA
16:00 11.5 7.0 74   LegendMM LegendMM LegendMM 99.59     LegendNANA
17:00 10.4 6.9 79   LegendMM LegendMM LegendMM 99.70     LegendNANA
18:00 10.7 5.9 72   LegendMM LegendMM LegendMM 99.80     LegendNANA
19:00 10.0 6.6 79   LegendMM LegendMM LegendMM 99.86     LegendNANA
20:00 9.8 5.9 77   LegendMM LegendMM LegendMM 99.96     LegendNANA
21:00 9.4 5.0 74   LegendMM LegendMM LegendMM 100.04     LegendNANA
22:00 9.1 5.1 76   LegendMM LegendMM LegendMM 100.13     LegendNANA
23:00 9.0 4.5 73   LegendMM LegendMM LegendMM 100.16     LegendNANA

Notes on Data Quality.

Legend

  • E = Estimated
  • M = Missing
  • NA = Not Available*
  • [empty] = Indicates an unobserved value
Date modified: